Location: Kerguer�zec
(48.4509°N, 4.7600°W)
Time: 16:36:38
(UTC+00:00)

Terra - Pass Details

Date: 09 April 2020
Orbit: 701 x 703 km, 98.2° (Epoch: 03 June)

Event Time Altitude Azimuth Distance (km) Brightness Sun altitude
Exits shadow 20:29:27 12° 75° (ENE) 2,052 3.8 -14.3°
Maximum altitude 20:30:58 14° 55° (NE) 1,946 3.9 -14.5°
Drops below altitude 10° 20:33:15 10° 27° (NNE) 2,183 4.4 -14.8°
Sets 20:36:37 0° 1° (N) 3,107 5.6 -15.3°
